Location: Feigenhofen
(48.4939°N, 10.7793°E)
Time: 04:50:42
(UTC+00:00)

Cosmos 2251 Rocket - Pass Details

Date: 26 May 2022
Orbit: 764 x 791 km, 74.0° (Epoch: 24 June)

Event Time Altitude Azimuth Distance (km) Brightness Sun altitude
Rises 01:56:46 0° 336° (NNW) 3,249 7.1 -11.5°
Reaches altitude 10° 01:59:09 10° 335° (NNW) 2,321 6.3 -11.2°
Maximum altitude 02:04:25 79° 250° (WSW) 791 3.5 -10.7°
Drops below altitude 10° 02:09:41 10° 164° (SSE) 2,320 5.7 -10.1°
Sets 02:12:04 0° 163° (SSE) 3,248 6.4 -9.8°
